Voltar ao catálogo

STARLINK-36559

AtivoComunicaçõesSSO
NORAD 67555·PAYLOAD·🇺🇸 United States

Lançado Jan 22, 2026 de Vandenberg Space Force Base

Loading…

Próximas Passagens (próximas 24 horas)

TLE

AtualizadoSource: CelesTrak SupGP

Época: Sep 15, 2026, 04:00 UTC

1 67555C 26014Z   26258.16715278  .00044849  00000+0  13904-2 0  2586
2 67555  97.2848 143.6192 0001638 105.0551 185.2925 15.33457914    14

Acompanhe STARLINK-36559 em tempo real com AllMySat

Download on the App Store